Regional Weather Roundup
Issued by NWS

Home | Current Version | Previous Version | Text Only | Print | Product List | Glossary On
Versions: 1 2 3 4 5 6 7 8 9 10 11 12 13 14 15 16 17 18 19 20 21 22 23 24 25 26 27 28 29 30 31 32 33 34 35 36 37 38 39 40 41 42 43 44 45 46 47 48 49 50
453
ASUS43 KMKX 201611
RWRWI

WISCONSIN REGIONAL WEATHER ROUNDUP
NATIONAL WEATHER SERVICE MILWAUKEE/SULLIVAN WI
1100 AM CDT SUN AUG 20 2017

NOTE: "FAIR" INDICATES FEW OR NO CLOUDS BELOW 12,000 FEET WITH NO
SIGNIFICANT WEATHER AND/OR OBSTRUCTIONS TO VISIBILITY.

WIZ001-002-006>008-014>016-023>028-201700-
NORTHWEST WISCONSIN

CITY           SKY/WX    TMP DP  RH WIND       PRES   REMARKS
SUPERIOR ARPT    N/A     71  65  82 W14       29.87R
ASHLAND        CLOUDY    78  66  66 S12       29.86F HX  80
HAYWARD        MOSUNNY   75  63  66 S14       29.91S
SIREN          SUNNY     76  65  70 SW10      29.91R
CUMBERLAND     SUNNY     72  63  73 S10       29.93S
RICE LAKE      SUNNY     74  65  74 S9        29.95R
CHETEK         SUNNY     73  65  76 S5        29.95R
LADYSMITH      SUNNY     75  65  70 S14G21    29.97R
EAU CLAIRE     CLOUDY    74  64  71 S12       29.94S
MENOMONIE      CLOUDY    75  66  73 S9        29.95S
NEW RICHMOND   SUNNY     75  64  67 SW10      29.93S
OSCEOLA        SUNNY     77  66  68 SW9       29.95R
$$

WIZ003>005-009-010-017-018-201700-
NORTH CENTRAL WISCONSIN

CITY           SKY/WX    TMP DP  RH WIND       PRES   REMARKS
MANITOWISH WTR SUNNY     74  65  75 SW15      29.94F
ARBOR VITAE    MOSUNNY   76  66  71 S15G21    29.96S
WOODRUFF       MOSUNNY   76  66  71 S15G21    29.96S
RHINELANDER    CLOUDY    74  64  71 S14G21    29.99S
EAGLE RIVER    MOSUNNY   74  61  65 SW10G18   29.97S
LAND O LAKES   MOSUNNY   74  62  67 SW7G18    29.98R
PHILLIPS       MOSUNNY   74  65  74 SW13      29.95S
TOMAHAWK         N/A     73  63  71 S3        29.98F
MEDFORD        CLOUDY    71  64  77 S12G17    29.98F
MERRILL        CLOUDY    72  64  78 S6        30.00S
$$

WIZ029-030-035-036-043>047-201700-
CENTRAL WISCONSIN

CITY           SKY/WX    TMP DP  RH WIND       PRES   REMARKS
WAUSAU         CLOUDY    72  62  71 S10       29.99S
MOSINEE        CLOUDY    72  64  78 S8        30.01F
MARSHFIELD     CLOUDY    74  63  68 S9        30.00S
STEVENS POINT  CLOUDY    73  62  69 S8        30.02S
WAUPACA        CLOUDY    76  64  64 S8        30.02S
WAUTOMA        CLOUDY    76  65  68 S8        30.03S
WISC RAPIDS    CLOUDY    75  65  70 SW9       30.02S
CAMP DOUGLAS   CLOUDY    73  64  73 S5        30.01R
$$

WIZ011>013-019>022-031-037>040-048>050-201700-
NORTHEAST WISCONSIN

CITY           SKY/WX    TMP DP  RH WIND       PRES   REMARKS
ANTIGO         CLOUDY    71  63  75 SW14      30.02S
SHAWANO        CLOUDY    76  64  67 SW7       30.01S
OCONTO         CLOUDY    76  64  67 SW6       30.01R
STURGEON BAY   CLOUDY    76  65  68 SW10      30.02S
GREEN BAY      CLOUDY    75  65  70 S10       30.02R
MANITOWOC      CLOUDY    77  61  57 SW14      30.04R
APPLETON       PTSUNNY   73  59  60 SW12      30.01S
CLINTONVILLE   CLOUDY    73  61  64 SW10      30.01S
OSHKOSH        MOSUNNY   75  63  66 S10       30.03S
$$

WIZ032>034-041-042-053>061-201700-
SOUTHWEST WISCONSIN

CITY           SKY/WX    TMP DP  RH WIND       PRES   REMARKS
LA CROSSE      CLOUDY    75  65  70 S8        30.00R
SPARTA         CLOUDY    72  64  76 S6        30.01R
VIROQUA        CLOUDY    71  67  87 CALM      30.03R
BOSCOBEL       CLOUDY    74  64  71 SW7       30.02R
PRAIRIE DU CHI CLOUDY    71  64  77 CALM      30.02R
PLATTEVILLE    CLOUDY    71  69  92 W6        30.05S
$$

WIZ056-057-062-063-064-067-068-201700-
SOUTH CENTRAL WISCONSIN

CITY           SKY/WX    TMP DP  RH WIND       PRES   REMARKS
REEDSBURG      CLOUDY    73  66  77 S8        30.02S
BARABOO/DELLS  CLOUDY    75  62  65 SW9       30.03S
LONE ROCK      CLOUDY    75  66  73 SW6       30.02R
MINERAL POINT  CLOUDY    73  68  83 SW6       30.05S
MADISON        CLOUDY    75  65  70 S7        30.03S
MIDDLETON      CLOUDY    76  65  68 SW8       30.04F
WATERTOWN      CLOUDY    75  68  78 S7        30.05R
MONROE         PTSUNNY   73  64  73 SW9       30.05S
JANESVILLE     CLOUDY    77  66  69 S7        30.04R
$$

WIZ051-052-058>065-066-070>072-201700-
SOUTHEAST WISCONSIN

CITY           SKY/WX    TMP DP  RH WIND       PRES   REMARKS
MILWAUKEE      CLOUDY    80  64  58 SW12      30.05R HX  82
WAUKESHA       SUNNY     73  63  68 S12       30.06S
MILWAUKEE/TIMM SUNNY     77  59  53 S7        30.06R
RACINE         CLOUDY    78  66  66 S8        30.06S HX  80
KENOSHA        CLOUDY    80  64  58 SW8       30.05S HX  82
FOND DU LAC    CLOUDY    76  62  62 S8        30.03S
SHEBOYGAN      CLOUDY    77  64  64 SW9       30.04S
WEST BEND      MOSUNNY   75  64  69 S7        30.05S
JUNEAU         CLOUDY    74  65  73 SW8       30.06S
$$

LSZ147-162-201700-
LAKE SUPERIOR

STATION/POSITION TIME  TEMP    WIND        PRES    WAVE
                       AIR SEA DIR/SP/G            HT/PER
                 (UTC) (F)     (DEG/KT/KT) (MB)    (FT/S)
W MID LAKE BUOY  1550   64 60  210/ 12/ 12 1010.4R   1/ 3
DEVILS ISLAND    1600   69     280/  3/  4 1010.5R
SAXON HARBOR     1540   77     200/  8/ 13 1010.8S
$$

LMZ867-665-643>646-201700-
LAKE MICHIGAN

STATION/POSITION TIME  TEMP    WIND        PRES    WAVE
                       AIR SEA DIR/SP/G            HT/PER
                 (UTC) (F)     (DEG/KT/KT) (MB)    (FT/S)
S GREEN BAY BUOY 1600   72 71  210/ 10/ 12 1016.1
N MID LAKE BUOY  1550   68 67  190/ 12/ 12 1016.3R   1/ 4
NORTHPORT PIER   1540   71     140/  7/  9 1015.6R
KEWAUNEE LAKESHO 1542   68     170/  7/  8 1015.9R
SHEBOYGAN LAKESH 1400   68     160/  7/  8 1016.0F
PORT WASHINGTON  1540   74     170/  6/  7 1017.9S
ATWATER BUOY     1509   71 71  150/  8/ 10 1017.4F
MILWAUKEE LAKESH 1550   72     130/  8/  8   N/A
S MID LAKE BUOY  1550   72 71  180/ 10/ 10 1018.1R   1/ 3
KENOSHA   LAKESH 1600   73     170/ 10/ 11 1017.3
$$

TC  - TEMPERATURE IN CELSIUS
VSB - VISIBILITY IN STATUTE MILES
WCI - WIND CHILL INDEX
HX  - HEAT INDEX





USA.gov is the U.S. government's official web portal to all federal, state and local government web resources and services.